Regional Weather Roundup
Issued by NWS State College, PA

Home | Current Version | Previous Version | Text Only | Print | Product List | Glossary On
Versions: 1 2 3 4 5 6 7 8 9 10 11 12 13 14 15 16 17 18 19 20 21 22 23 24 25 26 27 28 29 30 31 32 33 34 35 36 37 38 39 40 41 42 43 44 45 46 47 48 49 50
000
ASUS41 KCTP 212303
RWRCTP

REGIONAL WEATHER ROUNDUP
NATIONAL WEATHER SERVICE STATE COLLEGE PA
600 PM EST TUE NOV 21 2017

Note: "fair" indicates few or no clouds below 12,000 feet with no
significant weather and/or obstructions to visibility.

* = STATION THAT DOES NOT REPORT PRECIPITATION /E.G. RAIN...SNOW...ETC/
    THUNDER OR FOG.

PAZ002>004-007>009-013>016-020>023-029>032-220000-
WESTERN PENNSYLVANIA

CITY           SKY/WX    TMP DP  RH WIND       PRES   REMARKS
ERIE           PTCLDY    50  28  42 S17G26    29.84S
MEADVILLE      NOT AVBL
FRANKLIN*      PTCLDY    47  26  44 SW8       29.90R
NEW CASTLE     FAIR      48  28  46 SW5       29.92R
BEAVER COUNTY  CLEAR    N/A N/A N/A SW8       29.91R
BUTLER*        CLEAR     49  26  41 SW5       29.92R
PITTSBURGH INT PTCLDY    51  28  41 SW3       29.92R
PITTSBURGH     CLEAR     51  25  36 SW6       29.91R
INDIANA*       CLEAR     46  27  46 SW5       29.95R
LATROBE        CLEAR     50  27  40 SW9       29.93S
WASHINGTON CO* CLEAR     48  29  47 S7        29.95R
$$

PAZ004>006-010>012-017>019-024>028-033>037-041-042-045-046-049>053-220000-
CENTRAL PENNSYLVANIA

CITY           SKY/WX    TMP DP  RH WIND       PRES   REMARKS
BRADFORD       CLEAR     46  25  43 SW8       29.86S
DUBOIS         CLEAR     44  24  45 SW8       29.89R
CLEARFIELD     CLEAR     51  24  34 SW8       29.91R
JOHNSTOWN      CLEAR     50  23  34 SW10      29.92R
ALTOONA        CLEAR     48  25  40 S8        29.95R
STATE COLLEGE  CLEAR     50  25  37 S6        29.92R
WILLIAMSPORT   CLEAR     53  28  38 S20G29    29.92R
SELINSGROVE    CLEAR     48  30  49 S6        29.98R
FT INDIANTOWN  CLEAR     42  31  66 CALM      29.99R
CAPITAL CITY   CLEAR     52  28  39 S7        29.99S
HARRISBURG     CLEAR     50  33  52 S6        29.99R
YORK           CLEAR     36  30  79 CALM      29.99R
$$

PAZ038>040-043-044-047-048-054-055-060>062-067>071-220000-
EASTERN PENNSYLVANIA

CITY           SKY/WX    TMP DP  RH WIND       PRES   REMARKS
SCRANTON       CLOUDY    49  27  42 VRB5      29.97R
MOUNT POCONO   CLOUDY    41  28  60 S5        29.98R
ALLENTOWN      CLEAR     45  30  55 SW3       30.01R
QUAKERTOWN*    CLOUDY    45  32  61 CALM      30.02R
READING        CLEAR     50  34  54 CALM      30.00R
LANCASTER      CLEAR     47  35  63 SE5       30.00R
COATESVILLE    CLOUDY    50  39  66 S6        30.03R
POTTSTOWN      CLOUDY    43  32  65 CALM      30.04R
BLUE BELL      CLOUDY    50  36  57 S6        30.04R
DOYLESTOWN     CLOUDY    50  33  52 SW6       30.02R
WILLOW GROVE   NOT AVBL
NORTH PHILA    CLOUDY    55  38  52 SW9       30.04S
PHILADELPHIA   CLOUDY    54  38  54 S13       30.04R
$$




USA.gov is the U.S. government's official web portal to all federal, state and local government web resources and services.